Tracking 19219 objects as of 21-Jul-2018
HD Live streaming from Space Station
objects crossing your sky now

COSMOS 1717

Track COSMOS 1717 now!
10-day predictions
COSMOS 1717 is classified as:


NORAD ID: 16450
Int'l Code: 1986-002B
Perigee: 1,482.0 km
Apogee: 1,520.5 km
Inclination: 74.0 °
Period: 115.9 minutes
Semi major axis: 7872 km
RCS: 0.7102 m2 (medium)
Launch date: January 9, 1986
Source: Commonwealth of Independent States (former USSR) (CIS)
Launch site: PLESETSK MISSILE AND SPACE COMPLEX (PKMTR)
aabbcc
Your satellite tracking list
Your tracking list is empty




NASA's NSSDC Master Catalog

Two Line Element Set (TLE):
1 16450U 86002B   18201.54714517 -.00000012 +00000-0 +29417-4 0  9999
2 16450 073.9895 021.1178 0024435 298.0428 117.0634 12.42950803475866
Source of the keplerian elements: AFSPC